Kodiak Airport
PADQ : now visible

Airfield :











YOU CAN JOIN US ON...

 
LOGIN :

Register | Disclaimer

   EN    FR    IT 

 









Legend :    VFR   Marginal VFR   IFR   Intensive IFR   Very Intensive IFR
Visi :
Ceiling :
>= 8 km
>= 3000ft
5 to 8 km
1000 to 3000 ft
1500m to 5 km
500 to 1000 ft
800 to 1500m
200 to 500 ft
< 800m
< 200 ft
Symbols :   Thunderstorms  Fog  Heavy snow  Heavy precipitations  Wind > 20 kt






- Airport Elevation : 78 ft
- IATA code : ADQ


PADQ - Kodiak

CURRENT METAR :
  • 242053Z 30022G32KT 10SM CLR 03/M07 A2998 RMK AO2 PK WND 29032/2053 SLP153 T00281067 50016 $

EXPIRED METARs :
  • 241953Z 28019G33KT 10SM CLR 02/M07 A2998 RMK AO2 PK WND 28047/1903 SLP154 T00221067 $
  • 241853Z 28025G36KT 10SM CLR 03/M07 A2994 RMK AO2 PK WND 27038/1807 SLP141 T00281072 $

TAF PADQ
Valid from the 24 at 18:00 until the 25 at 18:00 UTC


241726Z 2418/2518 29025G35KT P6SM SKC
FM242200 28015G25KT P6SM SKC
FM250300 27010KT P6SM SCT250
FM251500 03012KT P6SM OVC020
PAZA FIR / North America



MET'MAP, your aeronautical weather chart ! - Copyright ORBIFLY December 2007 - Disclaimer

ORBIFLY MET'MAP TEAM :

Programming & Development : Alexandra Zaïnal
Concept & original design : Baudouin d'Aumeries
Assistance for programming : Marc-Olivier Méhu
Technical & hardware support : Manuel Goepfert

Contact : metmap@orbifly.com




SOURCES & CREDITS :

   NOAA       Earth
Advisory